Faribault, MN

1:26 AM CST on December 06, 2016 (GMT -0600)
Faribault Municipal

Weather History for KFBL - September, 2013

Change the Weather History Date:

Saturday, September 21, 2013

  Actual Average Record
Temperature  
Mean Temperature 54 °F -  
Max Temperature 64 °F 66 °F 84 °F (2008)
Min Temperature 44 °F 45 °F 32 °F (1982)
Degree Days  
Heating Degree Days 11    
Growing Degree Days 4 (Base 50)    
Moisture  
Dew Point 47 °F    
Average Humidity 83    
Maximum Humidity 100    
Minimum Humidity 56    
Precipitation  
Precipitation 0.00 in - - ()
Sea Level Pressure  
Sea Level Pressure 29.96 in    
Wind  
Wind Speed 4 mph (WNW)    
Max Wind Speed 13 mph    
Max Gust Speed 20 mph    
Visibility 10 miles    
Events      
Averages and records for this station are not official NWS values.
T = Trace of Precipitation, MM = Missing Value Source: NWS Daily Summary

Daily Weather History Graph

Daily Weather History Graph

Search for Another Location

Airport or City:

Trip Planner

Search our weather history database for the weather conditions in past years. The results will help you decide how hot, cold, wet, or windy it might be!

Date:

Astronomy

Sep. 21, 2013 Rise Set
Actual Time 6:59 AM CDT 7:12 PM CDT
Civil Twilight 6:30 AM CDT 7:40 PM CDT
Nautical Twilight 5:56 AM CDT 8:14 PM CDT
Astronomical Twilight 5:21 AM CDT 8:49 PM CDT
Moon 8:15 PM CDT (9/21) 9:25 AM CDT (9/21)
Length of Visible Light 13h 10m
Length of Day
12h 12m
Waning Gibbous, 94% of the Moon is Illuminated
Sep 21
Waning Gibbous
Sep 26
Last Quarter
Oct 4
New
Oct 11
First Quarter
Oct 18
Full

Hourly Weather History & Observations

Time (CDT) Temp. Windchill Dew Point Humidity Pressure Visibility Wind Dir Wind Speed Gust Speed Precip Events Conditions
12:13 AM 48.2 °F - 48.2 °F 100% 29.95 in 10.0 mi West 6.9 mph - N/A   Clear
12:34 AM 48.2 °F - 46.4 °F 93% 29.95 in 10.0 mi WNW 5.8 mph - N/A   Clear
12:54 AM 48.2 °F - 46.4 °F 93% 29.95 in 10.0 mi WNW 4.6 mph - N/A   Clear
1:13 AM 48.2 °F - 46.4 °F 93% 29.95 in 10.0 mi WNW 4.6 mph - N/A   Clear
1:34 AM 48.2 °F - 46.4 °F 93% 29.95 in 10.0 mi NW 3.5 mph - N/A   Clear
1:54 AM 48.2 °F - 46.4 °F 93% 29.95 in 10.0 mi WNW 4.6 mph - N/A   Clear
2:14 AM 48.2 °F - 46.4 °F 93% 29.95 in 10.0 mi WNW 3.5 mph - N/A   Clear
2:34 AM 46.4 °F - 46.4 °F 100% 29.95 in 10.0 mi Calm Calm - N/A   Clear
2:54 AM 46.4 °F - 46.4 °F 100% 29.95 in 10.0 mi Calm Calm - N/A   Clear
3:14 AM 46.4 °F 44.3 °F 44.6 °F 93% 29.96 in 10.0 mi West 4.6 mph - N/A   Clear
3:34 AM 44.6 °F 42.2 °F 44.6 °F 100% 29.96 in 10.0 mi West 4.6 mph - N/A   Clear
3:54 AM 46.4 °F 44.3 °F 46.4 °F 100% 29.96 in 10.0 mi West 4.6 mph - N/A   Clear
4:14 AM 46.4 °F 44.3 °F 46.4 °F 100% 29.96 in 10.0 mi WNW 4.6 mph - N/A   Clear
4:34 AM 46.4 °F 44.3 °F 46.4 °F 100% 29.97 in 10.0 mi WNW 4.6 mph - N/A   Clear
4:54 AM 46.4 °F 44.3 °F 46.4 °F 100% 29.97 in 10.0 mi WNW 4.6 mph - N/A   Clear
5:14 AM 46.4 °F 45.2 °F 46.4 °F 100% 29.97 in 10.0 mi NW 3.5 mph - N/A   Clear
5:34 AM 44.6 °F - 44.6 °F 100% 29.98 in 10.0 mi Calm Calm - N/A   Clear
5:53 AM 44.6 °F - 44.6 °F 100% 29.98 in 10.0 mi Calm Calm - N/A   Clear
6:14 AM 44.6 °F - 44.6 °F 100% 29.99 in 10.0 mi Calm Calm - N/A   Clear
6:34 AM 44.6 °F - 44.6 °F 100% 29.99 in 10.0 mi Calm Calm - N/A   Clear
6:54 AM 44.6 °F - 44.6 °F 100% 29.99 in 10.0 mi Calm Calm - N/A   Clear
7:14 AM 44.6 °F - 44.6 °F 100% 29.99 in 10.0 mi Calm Calm - N/A   Clear
7:34 AM 44.6 °F 43.1 °F 44.6 °F 100% 29.99 in 10.0 mi West 3.5 mph - N/A   Clear
7:54 AM 46.4 °F 43.5 °F 46.4 °F 100% 29.99 in 10.0 mi WNW 5.8 mph - N/A   Clear
8:14 AM 48.2 °F - 46.4 °F 93% 29.99 in 10.0 mi NW 5.8 mph - N/A   Clear
8:34 AM 48.2 °F - 46.4 °F 93% 30.00 in 10.0 mi NW 6.9 mph - N/A   Clear
8:54 AM 50.0 °F - 46.4 °F 87% 29.99 in 10.0 mi NW 6.9 mph - N/A   Clear
9:14 AM 51.8 °F - 46.4 °F 82% 30.00 in 10.0 mi NW 5.8 mph - N/A   Clear
9:34 AM 51.8 °F - 46.4 °F 82% 30.00 in 10.0 mi WNW 6.9 mph - N/A   Clear
9:54 AM 53.6 °F - 48.2 °F 82% 30.00 in 10.0 mi NW 6.9 mph - N/A   Clear
10:14 AM 53.6 °F - 46.4 °F 77% 30.00 in 10.0 mi NW 5.8 mph - N/A   Clear
10:34 AM 53.6 °F - 46.4 °F 77% 30.00 in 10.0 mi West 5.8 mph - N/A   Clear
10:54 AM 55.4 °F - 48.2 °F 77% 30.00 in 10.0 mi WNW 5.8 mph - N/A   Clear
11:14 AM 57.2 °F - 46.4 °F 67% 30.00 in 10.0 mi West 10.4 mph - N/A   Scattered Clouds
11:34 AM 57.2 °F - 46.4 °F 67% 30.00 in 10.0 mi WNW 9.2 mph - N/A   Scattered Clouds
11:54 AM 57.2 °F - 46.4 °F 67% 30.00 in 10.0 mi NW 6.9 mph - N/A   Clear
12:14 PM 57.2 °F - 46.4 °F 67% 30.00 in 10.0 mi WNW 10.4 mph - N/A   Clear
12:34 PM 59.0 °F - 46.4 °F 63% 29.99 in 10.0 mi West 10.4 mph - N/A   Clear
12:53 PM 60.8 °F - 48.2 °F 63% 29.99 in 10.0 mi WNW 8.1 mph - N/A   Clear
1:14 PM 60.8 °F - 48.2 °F 63% 29.98 in 10.0 mi NW 9.2 mph - N/A   Clear
1:34 PM 60.8 °F - 48.2 °F 63% 29.98 in 10.0 mi West 8.1 mph - N/A   Clear
1:54 PM 62.6 °F - 48.2 °F 59% 29.98 in 10.0 mi West 12.7 mph - N/A   Clear
2:14 PM 62.6 °F - 48.2 °F 59% 29.97 in 10.0 mi WSW 9.2 mph - N/A   Clear
2:33 PM 62.6 °F - 48.2 °F 59% 29.96 in 10.0 mi WNW 5.8 mph 16.1 mph N/A   Clear
2:54 PM 62.6 °F - 48.2 °F 59% 29.96 in 10.0 mi WNW 8.1 mph 19.6 mph N/A   Clear
3:14 PM 62.6 °F - 48.2 °F 59% 29.96 in 10.0 mi West 9.2 mph - N/A   Clear
3:33 PM 62.6 °F - 48.2 °F 59% 29.95 in 10.0 mi West 5.8 mph - N/A   Clear
3:54 PM 62.6 °F - 48.2 °F 59% 29.94 in 10.0 mi WNW 4.6 mph - N/A   Clear
4:14 PM 64.4 °F - 48.2 °F 56% 29.93 in 10.0 mi WNW 4.6 mph - N/A   Clear
4:33 PM 64.4 °F - 48.2 °F 56% 29.93 in 10.0 mi Calm Calm - N/A   Clear
4:54 PM 64.4 °F - 48.2 °F 56% 29.93 in 10.0 mi NW 5.8 mph - N/A   Clear
5:14 PM 64.4 °F - 48.2 °F 56% 29.92 in 10.0 mi West 4.6 mph - N/A   Clear
5:34 PM 64.4 °F - 48.2 °F 56% 29.92 in 10.0 mi NNW 3.5 mph - N/A   Clear
5:54 PM 62.6 °F - 48.2 °F 59% 29.92 in 10.0 mi Calm Calm - N/A   Clear
6:14 PM 62.6 °F - 48.2 °F 59% 29.92 in 10.0 mi Calm Calm - N/A   Clear
6:34 PM 62.6 °F - 50.0 °F 63% 29.92 in 10.0 mi Calm Calm - N/A   Clear
6:54 PM 60.8 °F - 51.8 °F 72% 29.92 in 10.0 mi Calm Calm - N/A   Clear
7:13 PM 57.2 °F - 51.8 °F 82% 29.92 in 10.0 mi Calm Calm - N/A   Clear
7:34 PM 53.6 °F - 51.8 °F 94% 29.92 in 10.0 mi Calm Calm - N/A   Clear
7:54 PM 51.8 °F - 51.8 °F 100% 29.93 in 10.0 mi Calm Calm - N/A   Clear
8:14 PM 51.8 °F - 51.8 °F 100% 29.93 in 10.0 mi Calm Calm - N/A   Clear
8:34 PM 51.8 °F - 50.0 °F 94% 29.93 in 10.0 mi Calm Calm - N/A   Clear
8:54 PM 51.8 °F - 48.2 °F 88% 29.94 in 10.0 mi Calm Calm - N/A   Clear
9:14 PM 50.0 °F - 48.2 °F 94% 29.94 in 10.0 mi Calm Calm - N/A   Clear
9:34 PM 48.2 °F - 48.2 °F 100% 29.94 in 10.0 mi Calm Calm - N/A   Clear
9:54 PM 48.2 °F - 48.2 °F 100% 29.94 in 10.0 mi Calm Calm - N/A   Clear
10:14 PM 48.2 °F - 46.4 °F 93% 29.95 in 10.0 mi Calm Calm - N/A   Clear
10:34 PM 48.2 °F - 46.4 °F 93% 29.96 in 10.0 mi Calm Calm - N/A   Clear
10:54 PM 46.4 °F - 44.6 °F 93% 29.96 in 10.0 mi Calm Calm - N/A   Clear
11:14 PM 44.6 °F - 44.6 °F 100% 29.96 in 10.0 mi Calm Calm - N/A   Clear
11:34 PM 44.6 °F - 44.6 °F 100% 29.96 in 10.0 mi Calm Calm - N/A   Clear
11:53 PM 44.6 °F 43.1 °F 44.6 °F 100% 29.96 in 10.0 mi ENE 3.5 mph - N/A   Clear